Theta_e
312 312 311 311 311 311 311 311 311 311 312 312 313 314 314 314 315 315 316 316 317 316 316 317 317 317 318 318 318 319 316 301 300 297 295 297 307 316 316 317 317 317 317 306 303 298 295 296 298 298 299 304 305 307 311 305 309 310 303 300 296 299 298 303 304 305 307 306 306 305 306 305 303 308 309 312 307 306 306 305 306 307 306 309 310 310 310 310
311 311 311 312 311 310 311 310 311 311 312 312 313 314 314 314 314 315 315 316 317 317 317 317 317 317 317 317 318 318 306 302 297 297 296 307 314 315 316 316 316 316 316 303 301 298 294 294 295 296 295 296 303 307 312 303 309 304 301 301 298 299 302 306 308 309 308 306 306 306 307 307 306 308 309 305 305 305 304 304 305 303 305 307 308 308 309 310
311 311 310 311 310 310 310 310 310 311 311 312 313 313 314 314 314 315 315 316 317 317 317 317 318 317 317 317 318 317 303 298 296 293 297 311 314 314 315 315 315 316 308 304 303 299 295 296 295 295 296 294 303 303 309 306 307 308 305 299 300 305 306 308 310 309 311 307 305 306 307 308 307 308 311 305 304 305 303 302 304 303 303 305 306 308 309 309
311 310 311 311 310 310 310 310 310 310 311 312 312 314 313 314 315 314 315 316 317 317 318 318 316 317 316 316 318 308 299 294 290 295 299 313 313 314 313 314 315 314 306 306 303 302 300 296 295 295 294 292 294 306 304 308 304 307 305 300 303 306 305 307 310 310 308 309 307 306 306 304 305 308 308 306 304 303 305 308 306 303 304 305 306 307 308 306
310 310 310 309 309 309 309 310 310 310 311 312 313 313 314 314 315 315 315 316 317 318 318 317 316 317 316 317 317 301 293 284 288 297 301 312 312 313 313 314 315 307 306 304 304 302 300 295 295 294 293 290 295 303 304 309 310 308 304 306 305 307 304 308 308 309 308 309 307 306 304 301 305 303 303 306 303 302 305 307 307 307 307 306 306 306 305 303
310 310 310 309 309 309 309 309 310 310 311 312 313 313 314 314 315 315 316 317 317 318 318 317 316 315 316 316 304 298 292 277 293 295 315 312 312 312 313 314 313 305 299 298 300 299 296 295 293 290 290 291 294 298 302 309 311 301 304 306 308 308 306 309 308 308 308 307 305 302 302 303 300 299 302 301 301 303 309 308 306 307 307 306 306 306 304 303
309 309 309 309 309 309 309 309 309 310 311 312 313 314 314 314 315 316 316 317 318 318 317 316 315 315 315 316 300 297 291 291 295 298 314 310 311 311 314 312 310 299 300 298 296 296 294 293 292 289 289 290 293 300 305 306 310 306 300 306 305 309 307 309 308 307 306 304 301 303 305 301 301 297 302 300 303 306 308 309 305 305 305 306 304 304 303 302
309 309 309 309 309 308 309 309 309 310 311 312 313 313 314 315 315 315 316 317 318 318 316 315 315 315 313 299 299 289 290 290 295 298 310 312 305 303 308 301 300 299 298 296 295 297 294 291 290 292 289 291 293 301 304 305 308 303 301 304 305 304 303 303 303 302 302 301 302 302 298 297 300 299 301 298 301 304 307 308 307 306 304 303 303 302 302 302
309 309 309 309 308 308 308 309 309 310 310 312 312 313 314 314 315 315 316 318 318 317 315 315 314 315 313 297 290 287 287 296 298 299 299 298 297 298 298 299 300 298 297 297 297 298 294 291 292 292 286 292 296 301 305 303 299 305 304 304 303 301 302 303 302 302 302 302 302 299 297 299 300 302 297 299 300 303 306 305 305 305 302 302 302 303 302 302
309 309 309 309 308 308 308 309 309 310 311 312 312 313 313 314 314 315 316 317 317 316 315 315 314 313 303 295 288 284 293 298 299 299 298 297 297 298 297 298 299 297 296 295 296 298 295 295 295 299 296 294 297 302 305 305 300 305 302 303 301 302 302 303 301 302 303 302 302 298 296 296 298 301 294 300 301 303 303 303 304 304 302 302 302 303 303 302
310 309 309 308 308 308 308 308 309 310 311 312 313 313 314 314 314 315 315 316 316 317 316 315 314 309 298 294 286 284 299 299 298 297 298 298 298 297 296 296 298 297 297 295 296 297 299 299 300 300 297 292 302 300 302 302 305 303 302 302 301 302 302 302 302 302 303 299 301 299 295 297 297 298 295 298 301 302 300 302 302 302 302 301 302 303 303 302
309 309 309 309 308 308 308 309 309 310 311 312 313 313 313 313 314 315 315 316 316 316 316 314 313 302 296 290 286 290 300 300 299 297 298 299 298 298 297 297 298 298 296 294 294 295 298 299 300 298 290 301 298 302 302 306 304 302 303 297 299 301 299 301 301 302 303 299 303 302 300 294 293 291 298 300 302 301 300 300 300 301 301 302 302 302 301 301
309 308 308 308 308 308 308 309 310 311 311 312 313 313 313 314 314 315 315 315 316 315 316 316 312 301 296 288 291 298 300 300 299 299 299 298 298 298 298 298 299 298 298 295 294 297 297 298 298 295 298 300 300 296 303 306 304 305 302 299 298 298 296 300 303 303 302 301 304 303 291 293 292 295 298 302 300 300 299 300 300 301 301 301 302 302 301 302
308 308 308 308 307 307 308 308 310 311 312 312 313 313 314 314 314 315 315 314 315 315 314 314 303 299 294 288 296 301 303 299 301 298 297 299 298 298 297 299 299 299 298 297 296 296 298 297 299 297 300 300 297 308 304 304 304 296 299 301 295 294 292 301 301 302 299 303 303 303 292 292 292 295 298 299 301 298 298 299 300 300 301 301 301 302 301 301
308 308 308 308 307 307 308 309 310 311 312 313 313 313 314 314 314 314 314 314 313 314 314 314 301 295 289 291 299 304 313 300 298 297 298 298 296 296 296 298 298 297 297 297 298 298 299 299 300 297 297 302 305 302 298 298 300 300 296 288 293 293 292 298 302 301 298 302 304 301 291 291 292 295 297 299 300 301 298 299 299 300 300 300 301 301 302 301
309 308 308 307 307 307 308 309 310 311 312 313 313 313 314 314 315 315 314 315 315 312 302 299 298 293 287 287 296 308 297 294 294 298 297 300 298 295 296 296 297 297 296 297 299 299 299 300 296 295 300 303 301 298 296 296 293 292 293 291 291 292 292 295 300 301 302 302 302 299 291 291 292 295 297 299 299 300 298 298 298 299 300 300 301 301 301 301
308 308 307 307 307 307 308 309 310 311 312 312 313 314 314 316 316 316 316 315 309 305 300 296 296 295 286 294 300 293 291 293 297 297 297 299 299 297 297 295 294 294 296 298 298 299 298 299 297 299 297 296 297 299 293 289 289 289 292 290 290 291 293 292 299 301 301 302 295 297 293 292 293 295 297 298 299 299 298 298 298 299 299 301 301 300 300 302
308 308 307 307 307 307 308 309 310 311 312 312 312 313 311 316 316 313 309 306 301 301 298 297 294 289 287 292 288 289 293 293 295 295 296 297 299 298 296 293 293 293 294 293 296 295 297 294 293 292 292 293 295 295 291 286 289 290 290 289 290 293 295 293 293 298 300 298 294 293 291 290 293 295 296 297 299 299 298 298 298 298 299 300 300 300 301 301
307 307 307 307 307 307 308 309 310 311 311 312 313 314 315 313 299 299 295 294 290 286 283 285 288 276 278 288 291 292 294 296 296 297 296 297 299 298 297 297 294 293 289 285 289 295 293 292 294 292 290 289 293 290 290 293 295 293 293 292 292 291 292 293 295 299 299 295 293 294 291 290 291 294 295 297 298 297 298 299 299 299 299 300 299 300 300 300
307 307 307 307 307 307 308 309 310 311 312 304 296 297 289 286 286 289 291 291 287 288 288 289 289 289 288 289 291 295 297 299 294 296 296 297 299 294 293 293 289 289 285 284 289 292 290 288 288 289 290 292 290 287 291 295 296 295 294 293 292 293 293 295 296 298 298 295 292 292 292 291 292 293 295 297 297 297 298 297 298 299 299 299 298 299 301 302
307 307 306 307 307 307 308 309 310 311 311 296 294 290 285 283 280 277 284 288 288 289 290 290 291 290 290 292 292 292 291 292 295 293 295 300 296 292 289 290 283 285 285 286 290 292 291 287 284 285 287 289 288 288 291 296 297 295 294 293 292 293 291 296 295 297 297 294 291 293 292 292 292 294 295 296 296 295 297 297 296 298 299 300 299 299 300 302
307 307 307 307 308 308 308 309 310 310 309 295 292 290 289 289 292 291 289 282 288 291 291 290 291 290 291 292 294 290 291 288 290 291 295 299 294 288 287 287 283 283 285 286 289 286 284 284 286 288 287 288 285 288 295 295 294 294 293 292 292 292 295 296 296 297 297 294 289 292 291 291 294 294 295 295 295 297 298 298 297 297 298 300 301 301 301 301
307 307 307 307 308 308 308 309 310 309 295 294 293 292 292 295 295 294 292 286 285 290 291 289 290 287 288 292 293 294 289 286 285 290 293 295 291 289 288 284 283 284 285 285 286 285 284 284 287 288 287 289 289 292 294 294 294 293 293 291 289 293 293 288 295 296 296 294 290 292 291 291 294 296 295 296 296 296 298 299 299 298 298 300 301 301 301 301
307 307 307 307 308 309 309 309 310 303 293 294 292 292 296 294 292 296 290 282 281 288 291 291 291 289 286 290 293 292 289 289 288 290 296 293 290 290 287 286 282 281 282 283 285 284 281 287 288 288 288 290 290 291 292 292 290 289 293 292 292 292 294 294 292 295 296 295 294 292 290 290 292 291 293 296 298 297 297 297 298 299 299 301 302 303 303 302
307 306 307 308 308 309 309 310 297 294 293 292 293 295 293 293 295 294 286 279 278 279 291 292 293 291 291 296 294 290 290 290 290 292 294 294 291 288 289 289 285 283 284 287 288 286 284 287 287 287 289 291 292 288 288 292 288 288 289 293 294 295 294 294 294 293 289 288 293 291 285 285 289 291 292 294 294 294 296 295 296 298 299 299 300 301 303 303
306 307 307 308 308 308 310 296 291 293 291 289 294 296 294 294 294 293 282 270 268 276 286 284 294 289 296 291 292 289 290 286 292 294 297 297 296 292 289 287 287 283 285 287 287 284 285 289 285 289 288 289 290 287 285 287 289 288 289 293 296 295 294 293 291 291 285 285 291 292 285 280 286 289 292 293 292 293 294 294 295 296 297 298 299 300 301 302
306 307 307 307 308 308 297 289 293 291 289 289 294 294 292 293 294 290 283 264 265 280 281 288 290 289 294 291 292 288 277 282 293 295 295 298 293 297 287 284 285 288 288 287 283 284 286 285 286 287 289 288 288 287 288 288 290 287 290 295 295 294 292 292 292 288 284 288 290 287 283 282 282 286 292 294 292 292 292 293 294 296 296 297 299 299 300 302
306 307 307 307 308 306 292 294 291 289 288 294 295 292 293 292 292 286 272 260 264 284 281 284 289 296 293 291 290 287 287 289 284 293 295 295 295 291 289 285 284 286 288 288 281 284 284 282 283 284 284 285 285 284 286 285 289 288 293 296 295 295 294 292 290 287 286 289 283 286 285 281 278 285 294 293 289 290 291 292 294 295 297 298 298 299 300 302
307 308 307 307 308 307 295 294 294 292 295 293 291 292 294 291 286 281 265 263 274 279 295 286 298 292 289 291 289 287 289 291 285 292 294 296 296 292 286 287 288 289 289 289 282 283 283 284 282 283 281 284 284 284 284 284 290 290 295 296 296 295 292 290 288 289 284 283 281 284 283 280 278 281 289 292 291 291 292 293 294 296 297 298 299 300 301 302
307 308 307 307 302 295 291 292 292 296 292 291 291 291 292 286 281 267 259 262 278 273 285 287 286 284 285 283 284 287 286 287 288 290 292 289 292 294 292 293 289 288 286 288 286 285 286 290 285 280 282 285 284 285 284 284 290 296 297 295 294 292 289 286 284 283 283 278 280 282 281 283 279 281 289 289 290 292 293 293 295 297 298 299 299 300 301 302
307 308 307 306 291 294 292 291 294 293 292 291 292 288 285 278 267 262 259 270 282 278 283 282 281 284 281 282 280 285 284 283 287 286 287 289 288 286 286 289 288 286 283 285 286 284 285 284 280 283 288 284 285 289 289 292 295 295 290 292 292 289 288 285 282 282 276 273 278 281 281 282 279 282 286 294 293 291 293 294 296 296 297 298 299 301 302 303
307 307 307 297 296 295 295 292 294 292 291 292 290 284 281 273 271 267 267 281 270 274 278 277 280 280 281 280 280 281 281 282 283 283 282 281 280 281 281 280 279 278 278 277 279 283 285 285 283 285 288 287 284 291 289 292 292 294 293 292 286 280 280 278 277 278 271 275 281 280 282 283 282 284 287 287 291 290 288 290 296 297 298 298 299 300 302 303
307 307 306 301 298 289 293 293 292 292 292 292 286 280 269 266 263 266 267 269 269 277 277 282 280 280 279 279 280 280 282 281 282 282 282 281 280 280 282 281 280 282 280 279 277 280 282 281 284 286 284 287 286 288 287 289 288 292 291 283 278 275 269 272 271 271 270 277 279 281 282 282 283 284 285 286 287 289 287 287 288 298 299 299 299 300 301 302
307 306 293 297 295 295 294 295 293 291 291 289 283 279 275 270 266 281 269 268 272 278 280 279 280 278 279 279 280 281 280 282 281 282 281 277 278 275 280 283 282 282 279 279 278 275 277 279 283 284 283 285 284 284 284 284 288 289 286 283 277 269 268 269 268 271 274 274 278 281 279 277 282 283 286 286 286 288 288 288 288 290 291 292 291 293 294 295
306 299 293 292 293 294 293 293 291 293 287 284 277 269 269 264 265 268 269 269 272 276 280 279 277 276 277 277 279 281 283 279 281 281 280 279 275 272 276 279 281 280 277 277 279 277 276 276 283 285 285 283 282 284 283 283 285 285 283 281 278 278 275 271 271 269 270 275 274 278 277 279 282 286 286 284 285 287 288 288 289 290 290 291 292 292 291 292
302 293 295 291 294 293 293 294 290 290 285 281 275 270 267 265 269 271 272 280 280 277 277 277 273 272 270 273 275 279 282 280 281 276 274 278 278 276 279 279 280 281 277 276 278 273 278 280 285 284 285 285 284 284 285 286 281 285 281 280 280 280 279 272 271 274 272 272 271 274 280 280 281 283 284 283 286 287 287 287 288 288 288 289 289 289 288 289
291 293 292 292 292 292 291 291 292 288 285 278 274 269 267 271 275 276 283 279 280 279 271 271 271 273 267 269 272 277 278 280 279 275 271 278 276 279 277 279 281 281 279 279 276 280 277 280 286 283 284 286 284 283 284 283 283 279 279 280 282 280 276 273 270 264 262 268 270 275 277 277 277 278 281 283 283 284 285 287 287 288 287 288 287 287 288 288
292 291 294 291 293 293 292 292 291 286 282 279 273 281 270 274 278 279 279 279 281 277 271 271 274 279 273 268 272 276 278 276 277 272 271 276 274 282 279 278 281 281 280 278 280 282 283 281 284 284 283 285 283 285 284 284 283 284 281 280 281 274 275 273 270 266 266 265 265 272 275 274 277 277 280 283 282 284 285 286 286 287 287 287 287 287 286 286
290 290 289 292 293 293 293 290 288 283 276 277 270 278 274 271 280 277 279 280 280 277 274 274 271 276 276 273 274 275 276 275 276 268 268 274 272 281 280 280 281 281 280 280 281 283 284 281 282 286 285 284 282 280 277 278 281 281 281 279 276 276 270 270 270 268 264 261 263 269 269 276 278 277 279 281 281 283 284 285 285 286 287 287 287 287 287 287
291 288 285 294 292 292 292 290 284 278 276 273 270 270 272 273 280 280 279 280 277 277 277 277 275 274 273 276 276 275 275 275 274 275 273 277 277 281 280 280 279 280 280 280 281 282 280 282 279 284 282 282 278 278 277 278 276 277 276 275 276 277 277 276 272 275 274 263 260 264 268 272 275 278 280 281 281 282 284 286 286 286 287 287 288 287 287 288
288 283 285 292 293 292 290 287 281 272 271 271 269 271 273 275 279 280 280 281 278 278 279 278 276 273 276 275 275 276 275 274 276 273 275 277 277 275 280 280 280 280 280 282 279 280 275 280 280 279 278 276 278 279 279 277 278 277 275 277 277 275 273 273 270 274 266 270 268 260 266 271 277 279 280 280 280 280 282 286 287 286 286 287 287 287 287 287
287 280 285 293 291 291 286 277 273 269 269 269 273 275 279 286 276 278 278 279 281 278 275 278 278 276 273 274 277 275 273 274 274 272 276 276 279 278 281 279 280 280 280 280 281 283 281 277 278 276 275 276 279 279 278 278 278 278 277 278 274 275 271 262 268 269 267 270 266 263 268 270 275 277 278 278 279 280 280 284 286 285 285 286 286 286 286 287
284 281 290 291 291 291 281 272 277 275 270 273 276 279 279 279 276 278 277 278 278 280 275 275 277 278 278 278 275 273 275 274 276 274 277 276 278 279 279 279 280 280 280 279 282 282 285 270 270 271 274 276 277 275 275 273 277 279 278 277 277 278 277 271 271 271 267 266 269 268 266 270 276 279 277 277 278 279 278 281 285 284 284 285 284 284 285 285
282 284 288 292 292 290 285 278 271 270 271 272 274 275 277 278 276 277 275 274 278 278 277 278 277 278 279 279 278 278 277 273 278 277 277 278 279 281 277 280 280 281 281 281 280 280 277 274 275 267 267 270 270 272 276 275 278 276 278 278 278 278 277 273 269 266 271 268 268 265 267 266 277 277 276 278 277 279 280 281 283 284 282 284 284 284 284 284
284 284 284 287 291 289 282 275 273 269 274 271 273 275 276 276 279 280 278 276 277 276 276 277 279 279 276 277 275 277 279 278 272 279 278 278 279 280 279 278 280 280 280 282 288 281 276 271 269 267 266 267 266 267 268 272 278 278 277 278 279 278 276 277 276 265 269 271 271 270 263 272 276 276 279 277 277 280 279 277 280 283 284 284 283 284 284 284
282 278 280 281 282 279 279 276 277 275 272 270 272 275 275 275 280 279 279 277 278 276 278 278 275 277 274 277 275 274 277 278 276 276 276 277 277 278 280 278 280 280 285 288 286 278 269 268 265 265 267 268 264 267 273 278 277 275 276 278 277 277 275 276 273 268 271 266 268 271 274 276 277 279 278 278 278 279 280 281 282 284 283 282 283 285 284 285
283 279 275 279 279 278 276 276 275 277 277 276 272 275 273 276 277 279 280 277 279 279 276 276 273 277 277 277 274 274 277 278 276 276 277 277 277 278 279 279 279 282 287 286 283 273 266 269 268 264 267 270 273 274 275 277 275 275 276 277 277 276 277 275 274 271 273 273 269 274 274 277 278 277 278 277 278 277 278 279 280 282 284 285 285 284 286 283
279 276 277 280 280 278 276 278 276 276 277 278 274 277 275 275 277 275 279 280 279 278 277 277 274 276 276 278 276 274 276 274 274 275 278 277 278 279 278 281 281 284 283 280 279 277 267 269 271 270 270 271 272 272 273 274 275 275 275 275 275 276 275 274 272 275 277 272 275 274 273 275 277 276 279 280 280 282 282 282 284 285 284 283 283 283 284 283
282 279 279 282 281 277 277 279 279 280 278 275 278 276 274 275 275 276 278 278 277 276 279 274 276 277 276 277 277 275 276 272 274 274 274 278 277 277 277 279 282 277 279 275 276 271 273 268 267 269 268 269 271 271 272 272 270 272 271 274 275 274 275 276 275 274 276 274 273 275 273 276 279 278 279 279 279 280 280 281 283 283 284 284 283 284 284 284
279 281 279 278 279 275 277 279 280 279 277 282 273 275 277 276 277 278 278 276 275 276 279 277 276 275 275 275 276 278 279 278 278 277 278 277 275 277 276 278 279 279 276 277 277 275 278 271 276 266 269 270 270 272 270 268 268 268 271 272 273 273 274 274 272 272 271 274 274 274 275 278 282 283 284 284 279 281 281 280 282 283 283 283 283 284 284 284
286 286 282 280 277 279 281 280 280 277 276 277 276 278 279 277 277 277 278 279 278 275 277 277 277 276 277 276 277 278 280 280 277 281 280 278 278 279 278 278 278 278 277 275 274 272 273 271 266 266 270 269 270 267 268 264 267 265 267 269 268 269 270 271 274 277 276 276 271 274 273 278 283 280 282 282 281 280 281 282 281 282 282 283 283 284 284 284
284 285 285 280 276 283 281 278 278 278 276 277 279 279 281 279 278 279 278 279 278 279 278 278 278 277 276 278 277 280 281 279 281 280 279 279 279 278 279 279 277 278 274 277 276 275 269 270 270 269 271 265 268 266 264 264 266 268 267 272 274 273 275 275 276 276 280 279 276 271 278 282 281 278 281 280 279 280 281 282 282 281 281 283 284 284 285 285
Wind_Speed
10 10 10 11 9 10 10 9 9 9 10 9 10 11 11 11 11 11 11 12 12 11 12 12 12 11 10 9 8 8 7 2 3 2 3 3 4 9 12 11 11 11 11 4 7 8 3 2 1 0 4 5 1 2 1 4 0 2 2 3 3 6 6 7 9 9 3 13 7 4 7 14 10 5 7 9 13 13 10 11 5 12 10 9 10 11 8 7
11 11 11 11 10 9 10 9 9 9 9 10 10 11 11 11 12 12 12 12 12 11 11 11 11 10 9 7 7 7 4 1 1 1 1 4 8 9 11 11 10 9 8 4 6 4 4 3 3 0 5 4 2 2 2 1 2 2 2 2 5 4 2 3 5 6 8 8 8 8 3 11 8 6 2 9 5 8 11 7 6 9 10 12 12 8 7 5
11 11 11 11 11 10 10 10 9 9 9 10 10 11 11 11 12 12 12 12 12 11 11 11 10 9 7 6 6 6 2 2 1 1 3 7 8 10 10 10 10 8 2 2 2 1 2 2 2 1 3 4 3 4 4 2 2 2 2 2 5 3 1 2 7 8 10 16 13 12 6 12 5 4 1 8 9 8 10 8 7 9 11 12 10 8 5 5
10 10 10 11 11 10 10 10 9 9 10 10 11 11 11 11 12 12 12 12 12 11 11 10 9 8 6 6 6 1 2 2 0 2 3 8 9 10 11 10 9 6 2 1 2 2 2 1 1 2 2 3 2 3 7 4 3 1 1 2 2 6 4 4 5 10 11 15 13 11 8 13 6 5 6 11 14 7 5 3 11 11 12 11 10 9 6 6
10 11 11 11 11 11 10 10 10 10 11 11 11 12 12 12 12 12 12 12 12 11 10 9 9 7 6 5 5 1 2 2 1 2 5 8 11 11 11 10 11 5 1 3 3 2 1 1 1 0 1 5 5 4 2 3 2 3 1 2 8 2 7 2 8 13 10 10 14 10 14 8 3 9 9 1 12 7 3 7 8 10 11 11 10 7 6 7
11 11 11 11 11 11 10 10 11 10 10 11 12 12 12 12 12 12 12 11 11 10 9 8 9 8 6 5 2 1 3 1 0 2 7 8 12 12 12 11 9 3 3 3 0 2 1 0 1 2 1 2 10 10 4 7 6 2 1 1 6 4 11 3 8 11 14 10 13 8 5 6 9 10 8 13 9 3 5 8 9 9 9 8 6 6 7 8
11 11 11 11 11 11 11 11 10 10 10 11 11 11 12 12 12 12 12 11 11 9 7 8 8 6 7 4 1 2 1 2 1 6 6 10 11 12 12 7 7 6 5 5 5 1 0 0 2 2 2 3 4 6 9 9 4 5 1 0 5 4 12 6 9 8 6 13 9 8 8 11 10 13 4 12 7 6 8 6 8 10 9 8 7 5 6 7
11 11 12 12 11 11 11 11 11 10 10 11 11 11 11 12 12 12 12 11 10 7 6 7 7 4 5 2 0 2 1 1 4 5 7 10 9 9 8 2 6 5 5 3 2 1 1 1 3 1 1 6 5 11 9 10 7 8 2 2 3 5 6 10 11 13 15 12 13 14 13 6 8 9 8 7 6 5 6 6 5 8 11 7 7 6 5 6
12 11 11 12 12 12 11 11 10 10 11 11 11 11 11 11 11 11 11 11 8 6 6 6 6 2 2 2 3 1 1 2 5 5 7 6 7 8 5 3 4 4 0 1 2 2 3 1 1 0 4 4 2 13 10 13 2 3 6 0 7 5 10 8 15 13 12 8 15 20 14 11 11 10 11 4 4 4 5 7 5 6 10 8 6 5 5 4
13 13 13 13 12 12 11 10 10 10 11 11 11 11 11 11 11 11 10 9 8 7 7 7 6 3 3 2 2 1 3 5 4 4 4 4 6 6 6 1 2 3 3 4 3 4 2 1 0 1 1 1 1 8 7 3 5 11 13 8 10 5 10 6 10 9 7 6 13 17 9 4 7 0 4 2 1 3 7 7 5 4 8 6 5 5 3 5
12 13 13 13 12 12 11 10 10 11 11 11 11 11 11 11 11 11 10 9 8 8 6 6 6 4 1 2 3 1 3 3 1 2 5 3 5 5 4 5 0 1 1 2 1 0 1 1 1 1 0 2 5 2 3 6 11 18 20 16 13 13 12 7 10 9 4 7 9 20 10 6 8 5 5 5 2 3 8 5 6 5 5 5 4 5 4 3
13 12 13 12 12 12 11 11 11 11 11 11 11 11 11 11 11 11 10 9 7 7 6 5 4 1 2 3 4 0 3 4 2 4 4 2 3 4 6 5 1 1 1 1 2 1 1 0 0 1 1 1 6 8 5 17 11 17 22 14 6 9 9 9 5 4 5 5 6 13 14 5 8 4 4 4 4 3 4 4 3 5 5 4 3 2 2 3
13 13 13 12 12 12 11 11 11 12 11 11 11 11 11 10 11 11 9 9 8 8 7 6 3 2 1 1 3 6 2 2 3 5 3 1 3 2 2 1 2 2 3 1 1 2 1 1 1 3 2 2 6 4 7 12 11 3 15 16 12 8 6 7 3 5 8 3 4 6 4 2 1 2 1 3 5 4 5 3 3 3 4 4 4 3 2 2
13 13 13 13 12 12 11 10 11 11 11 11 11 11 10 10 10 10 8 8 8 7 8 7 1 1 1 2 4 3 2 2 2 4 3 3 5 5 5 4 2 1 1 2 3 2 1 1 0 3 0 2 3 9 14 2 5 5 4 11 10 9 2 4 4 1 7 1 3 4 2 3 3 5 3 1 4 6 5 4 3 5 4 3 2 3 3 3
14 14 14 13 12 12 11 11 11 12 11 11 11 11 11 10 10 9 8 7 7 6 6 5 2 1 2 2 4 6 3 3 4 3 3 3 3 4 4 6 6 3 2 2 1 1 0 0 0 1 0 3 11 12 9 4 3 3 9 1 1 10 2 1 3 2 3 3 1 1 3 3 6 7 4 2 2 4 6 5 4 4 5 5 4 3 3 4
14 13 13 13 12 12 11 11 12 12 11 11 11 12 11 10 10 10 8 7 7 3 2 1 1 2 1 2 1 3 2 2 4 3 2 0 0 2 3 4 3 3 2 1 0 1 1 1 1 2 5 6 10 9 9 9 1 4 1 7 5 6 9 6 2 0 3 2 2 1 4 3 1 6 5 3 3 4 5 6 5 5 3 3 4 5 4 4
14 14 13 13 12 12 11 11 11 12 11 11 12 11 10 8 8 10 10 6 0 2 2 1 0 2 1 4 1 3 3 3 4 2 5 0 1 1 4 4 1 5 3 2 1 0 2 1 3 2 2 5 5 9 11 2 6 3 2 5 1 13 10 6 3 1 1 2 1 4 6 1 1 8 5 4 4 4 5 6 5 4 4 4 4 4 4 5
14 14 13 13 12 12 11 11 11 12 12 12 10 7 6 9 7 7 4 4 2 3 1 1 1 2 3 5 4 5 3 4 5 5 4 3 1 0 1 1 1 4 1 2 1 1 1 0 3 5 2 3 3 7 11 12 13 10 7 9 6 6 6 10 9 5 3 3 5 5 8 4 4 4 5 5 4 4 6 5 5 4 4 5 3 3 6 6
14 14 14 12 12 12 11 11 11 12 12 13 9 6 3 4 2 2 4 4 2 4 3 4 4 2 2 6 6 5 4 4 3 1 4 3 1 1 0 0 1 2 0 3 1 2 2 3 5 6 7 5 8 4 3 3 7 8 9 10 11 11 5 8 2 4 7 5 6 2 5 5 6 5 4 5 5 5 5 4 4 4 4 4 4 5 6 6
14 14 13 13 12 12 11 10 11 11 11 6 5 3 3 3 3 1 6 5 3 1 3 2 1 3 3 4 4 5 4 2 2 2 3 2 1 3 1 1 2 3 2 3 2 1 1 5 8 9 8 6 3 1 1 5 9 11 10 12 10 11 6 4 5 4 3 6 5 4 5 5 5 5 5 5 3 4 5 5 5 5 5 5 5 6 6 6
14 14 14 12 12 12 10 10 11 11 9 1 1 3 1 1 1 2 3 2 2 1 1 3 2 2 3 3 3 4 4 2 1 2 3 1 1 1 2 2 3 3 2 1 4 1 6 8 3 2 1 0 3 0 3 10 10 12 11 12 8 9 8 4 6 2 0 4 2 2 6 3 3 4 4 3 6 9 7 6 5 5 5 5 6 7 7 5
15 15 14 13 13 12 10 10 11 11 5 0 3 3 1 1 0 1 1 1 2 0 2 5 1 3 4 3 1 2 3 1 4 4 4 0 1 1 2 4 2 5 2 1 3 5 6 6 1 1 1 1 2 2 4 10 10 8 11 11 10 6 9 6 4 2 1 5 3 3 4 3 4 3 3 7 7 4 4 5 6 6 6 6 6 6 5 3
14 16 14 13 13 12 10 10 10 8 2 2 2 3 1 1 1 1 1 1 1 1 1 3 5 4 4 4 0 1 1 3 2 6 5 2 1 2 0 2 4 1 3 3 8 9 8 1 2 3 1 2 4 5 8 9 7 9 9 11 10 11 13 5 2 2 4 2 6 4 5 1 2 3 5 6 6 4 3 5 6 6 7 8 9 8 6 5
15 15 14 14 13 12 10 11 8 2 1 5 4 2 0 0 1 1 1 1 1 2 0 0 2 1 3 2 1 2 0 2 1 7 4 3 1 1 2 1 4 4 2 4 7 8 4 1 3 2 1 5 7 6 9 8 6 2 8 7 10 13 1 10 7 4 3 8 7 6 3 1 4 4 5 5 4 4 4 4 5 6 6 6 5 4 5 7
15 15 14 15 13 12 11 7 3 1 1 4 1 1 2 1 1 1 1 3 3 3 1 1 2 2 3 1 2 1 1 1 1 2 2 1 3 1 1 1 4 3 4 5 9 9 3 1 1 3 5 7 9 5 5 10 6 2 2 9 14 8 13 11 11 8 3 3 2 4 2 4 3 7 7 3 4 7 5 7 8 7 6 6 7 7 5 6
14 15 15 14 13 12 8 1 1 1 1 1 1 1 2 1 1 1 4 3 1 4 2 4 0 2 2 3 0 1 1 2 2 2 2 1 1 1 1 3 2 3 2 6 8 4 0 6 3 6 6 7 8 4 3 1 7 6 4 2 11 11 13 14 10 6 4 5 4 1 4 3 1 5 7 6 8 10 4 7 8 7 8 7 7 6 6 7
15 14 14 13 11 9 2 1 0 1 0 1 1 2 2 1 1 2 2 5 5 2 3 2 1 1 3 3 1 1 3 3 7 0 2 1 1 0 5 3 3 1 1 1 4 2 4 7 6 5 9 7 7 5 0 4 10 4 1 10 6 13 13 11 8 3 2 2 3 2 1 0 1 2 2 7 7 8 8 9 9 9 9 9 8 8 6 6
14 14 14 13 12 2 1 1 1 1 1 0 1 2 2 1 2 2 4 3 3 3 3 4 0 1 2 4 6 3 2 2 5 5 1 2 0 4 8 2 3 1 3 2 9 2 3 4 5 4 5 5 5 2 1 1 5 3 6 11 11 14 10 7 6 5 2 6 0 1 1 1 3 1 2 6 4 8 11 11 11 11 10 11 10 10 8 6
14 14 13 13 9 6 3 2 1 0 0 3 3 3 2 2 3 6 3 4 3 1 6 1 2 2 6 5 6 2 1 1 2 2 6 2 5 3 6 1 4 9 10 7 6 1 1 1 4 1 2 3 2 3 3 4 4 2 6 7 8 8 6 5 5 7 1 4 4 2 1 1 4 1 1 2 5 8 10 11 12 12 13 11 10 10 8 6
14 14 12 13 4 2 2 1 1 0 2 3 3 2 1 3 2 2 5 3 1 2 2 3 3 4 3 4 4 6 6 3 1 4 4 2 7 7 2 1 4 9 6 6 8 4 1 1 3 4 2 0 1 5 4 7 3 10 12 11 7 5 4 3 5 3 4 1 3 1 2 2 2 4 6 7 6 6 4 3 5 6 8 9 9 9 8 8
14 13 11 7 1 1 1 1 1 1 2 3 2 3 2 7 4 5 3 2 0 1 3 3 3 5 5 6 5 6 3 4 6 4 6 9 8 5 5 3 5 6 4 7 6 3 1 1 3 1 2 1 2 2 2 3 9 9 4 7 9 6 4 4 3 4 3 3 2 2 1 1 3 2 3 6 2 1 3 4 7 9 11 11 9 9 10 10
13 11 9 3 2 1 0 1 1 1 2 2 1 4 4 2 7 6 1 4 2 4 2 4 2 1 6 2 4 5 3 4 3 5 6 4 6 7 7 5 2 4 5 4 2 4 8 8 1 5 2 5 3 7 5 6 5 7 9 6 6 4 3 1 1 2 1 4 0 3 1 1 4 4 1 4 4 2 2 3 4 8 11 11 10 11 11 9
12 9 6 1 3 1 0 1 0 1 1 1 4 3 4 7 3 2 2 3 1 0 1 1 3 4 4 3 5 4 2 4 3 4 2 3 5 2 0 5 3 1 7 1 2 5 5 4 7 9 3 5 2 9 4 5 1 8 7 4 5 6 3 3 1 1 2 3 3 0 2 2 3 4 0 1 2 2 3 3 5 6 9 10 9 9 8 7
11 5 1 2 1 1 1 0 1 2 2 2 3 4 7 9 1 3 1 1 1 2 2 1 4 4 3 4 3 2 7 2 4 3 3 0 5 6 7 8 10 7 6 2 4 0 6 4 7 7 3 5 5 4 1 3 6 6 1 1 3 4 5 4 3 5 6 4 1 2 2 5 5 2 1 1 2 2 2 2 3 5 3 3 3 4 4 4
9 2 0 2 1 1 0 1 3 1 2 4 9 6 7 1 2 2 1 1 1 2 0 2 1 2 4 4 3 2 1 2 3 4 9 6 4 2 4 7 6 2 0 5 1 4 1 1 5 3 3 3 4 1 2 2 6 1 1 3 4 0 4 4 6 5 2 2 2 1 4 1 2 0 2 1 1 3 3 4 4 6 4 5 5 4 4 4
3 2 0 0 0 1 0 1 2 2 1 6 7 6 3 4 2 1 1 2 1 0 3 2 4 4 2 3 1 2 6 3 4 3 4 3 0 2 2 1 3 3 1 4 2 3 1 5 3 7 3 1 2 1 2 1 4 4 2 1 1 2 7 5 1 2 2 4 2 0 6 3 5 1 1 2 1 2 3 3 4 4 4 5 5 4 4 4
3 2 0 1 1 1 1 1 1 3 7 7 7 1 2 1 1 2 3 1 0 2 2 2 3 1 2 2 2 6 3 3 3 4 3 0 2 3 3 3 3 2 2 2 1 1 6 3 1 5 4 1 0 1 1 1 1 4 1 1 1 2 5 3 3 2 3 3 3 1 2 4 2 2 1 1 1 2 1 1 2 2 3 5 3 3 3 4
2 1 0 0 1 1 1 0 2 6 6 6 5 4 0 1 0 1 0 0 0 1 2 2 0 2 1 1 4 3 6 5 5 4 0 2 1 1 1 2 3 3 3 2 3 1 2 7 3 1 2 7 4 1 3 1 3 1 3 3 0 1 0 2 5 1 1 1 1 1 1 3 3 3 1 2 4 4 4 2 1 3 3 4 3 3 2 3
1 1 1 1 0 0 0 1 6 3 3 8 1 3 1 1 0 1 1 3 0 1 3 1 1 1 1 1 1 1 3 3 1 1 3 2 2 2 1 0 1 1 3 1 3 0 2 4 3 2 1 3 3 4 2 6 6 2 1 2 0 2 1 2 1 2 5 1 2 2 3 2 5 3 3 4 4 5 4 3 4 4 4 4 4 4 4 4
1 1 1 0 1 1 1 2 6 7 6 5 2 1 2 2 1 2 1 1 0 1 1 1 0 1 2 0 0 0 2 3 2 0 3 1 2 2 0 4 1 7 5 2 2 0 0 1 5 1 3 2 2 5 1 1 1 5 5 3 2 3 1 3 1 1 0 4 2 2 1 4 4 5 4 5 4 5 7 7 5 5 5 5 5 6 5 5
0 2 1 1 0 0 2 9 9 6 6 1 1 2 0 1 1 0 2 0 0 2 1 2 2 1 2 1 1 0 1 3 3 1 1 0 1 0 0 1 1 3 4 1 5 2 2 4 6 1 5 3 1 0 1 1 1 0 1 2 3 2 1 1 1 1 2 1 1 3 1 5 7 2 5 4 4 3 5 6 6 5 5 6 6 5 6 5
1 1 1 0 1 2 2 5 3 0 5 3 1 1 1 3 1 0 1 0 0 0 1 2 1 2 1 1 0 1 2 2 1 1 1 1 2 1 0 2 2 1 1 2 0 1 2 3 6 5 1 1 2 1 0 0 1 0 1 0 2 1 5 3 2 2 2 1 3 1 2 3 2 3 3 4 3 3 3 5 6 5 6 6 6 5 5 5
0 1 1 1 1 3 7 5 2 5 3 1 2 1 2 1 2 1 0 1 0 1 0 1 1 2 1 1 0 1 1 1 1 1 0 0 0 1 3 2 2 2 0 1 1 1 5 4 5 1 4 3 2 1 1 2 0 0 1 0 1 0 1 2 2 4 4 1 0 1 1 3 2 0 2 3 4 4 2 4 5 4 5 6 5 5 6 5
0 0 0 1 1 3 2 1 1 1 0 1 2 0 2 1 1 0 0 1 0 0 1 0 0 1 1 0 1 1 1 2 1 1 1 0 1 1 2 3 2 1 0 0 1 1 1 1 7 3 2 3 2 2 1 1 0 0 0 0 1 0 2 2 4 1 2 1 2 3 1 2 2 2 2 1 2 2 1 0 5 5 4 5 5 5 5 5
0 1 0 2 4 2 1 3 7 6 1 2 1 2 0 1 1 0 1 0 0 1 0 0 0 1 1 0 1 1 1 1 1 2 1 0 0 1 3 2 4 1 1 3 3 1 5 1 3 5 6 5 2 2 5 4 4 0 0 0 0 0 1 2 0 2 1 0 2 1 3 7 7 3 1 2 1 2 3 2 2 4 6 7 5 6 7 7
0 1 2 1 4 5 4 1 6 7 6 3 3 1 1 1 0 2 3 0 1 0 0 0 1 1 2 0 2 2 3 2 1 1 1 0 1 1 3 3 1 0 2 3 1 4 4 2 3 4 6 7 4 2 2 0 1 1 1 0 2 1 2 3 4 3 3 2 2 7 4 2 3 5 4 5 2 5 5 3 4 5 4 4 5 7 8 9
0 1 1 1 2 5 1 2 3 3 6 5 3 3 2 1 1 0 3 0 0 0 1 1 1 1 1 2 1 1 1 1 3 4 1 0 1 2 3 1 2 2 3 0 3 4 4 4 1 7 2 1 1 1 2 1 1 1 1 1 0 1 1 2 4 4 5 6 6 6 6 3 8 6 6 6 6 5 6 5 4 4 6 9 9 7 7 5
1 1 2 0 2 1 1 0 4 4 3 2 0 1 5 3 0 1 1 0 0 0 1 0 3 1 3 3 4 2 1 1 2 1 0 1 0 2 1 0 1 2 1 0 1 1 3 2 2 3 0 1 1 2 2 1 0 1 3 2 3 4 3 6 5 5 7 4 9 2 2 4 6 6 8 9 9 9 10 11 11 7 4 4 4 7 9 9
1 0 0 1 0 1 1 0 5 7 5 2 2 2 3 4 4 3 3 0 1 0 0 1 2 2 1 0 1 2 3 4 1 1 2 1 1 0 1 1 0 2 1 1 2 1 5 1 2 2 1 1 1 3 4 1 2 2 4 6 3 3 7 7 6 3 7 6 1 1 2 11 9 6 6 10 7 5 2 1 0 3 6 8 7 8 10 10
1 1 0 3 4 3 0 3 3 5 4 0 3 3 5 7 5 1 1 2 2 1 1 0 3 2 0 0 1 4 6 2 6 4 4 4 1 0 1 2 1 1 2 1 0 4 2 0 3 1 1 3 2 1 3 3 1 5 5 4 3 3 4 5 2 2 1 7 7 4 7 14 9 9 12 9 1 0 1 2 7 8 6 8 10 10 10 10
0 0 1 4 2 0 1 2 3 3 2 1 2 1 3 4 4 5 1 1 1 3 4 3 6 4 1 1 0 1 2 1 2 0 8 6 3 5 3 1 3 2 1 1 1 3 4 0 1 1 1 1 1 2 2 3 1 5 9 9 6 3 4 4 6 7 6 9 1 1 5 10 10 4 6 4 2 4 6 9 8 7 7 7 10 11 11 11
1 1 1 2 2 1 2 0 1 2 1 5 3 4 3 9 3 6 3 1 1 1 2 4 6 6 1 1 1 1 0 2 1 1 0 1 2 4 2 1 2 2 3 2 0 1 2 6 2 1 1 2 2 1 3 6 3 6 8 10 13 9 4 1 3 3 8 5 5 5 11 7 6 3 3 4 5 7 7 9 9 7 6 10 13 13 13 13
Wind_Direction
355 351 351 346 355 347 342 340 336 338 338 332 337 341 338 337 336 336 332 330 330 331 329 327 325 325 324 325 330 339 5 59 6 25 46 235 255 288 308 312 317 322 340 357 349 24 353 10 5 358 118 122 205 118 249 90 153 111 204 138 141 192 191 184 167 181 149 138 162 105 124 112 106 114 111 67 49 80 79 73 66 58 58 87 98 108 111 129
354 352 350 348 349 352 341 338 334 340 333 334 335 337 337 335 335 332 330 329 329 331 331 330 328 324 328 325 325 340 59 63 48 50 235 272 306 315 311 314 316 324 357 6 15 354 11 6 5 19 135 125 246 96 51 53 135 179 189 125 190 205 224 132 172 150 132 141 120 117 132 107 114 124 112 93 80 84 73 59 83 76 88 88 93 100 113 138
356 351 347 345 344 348 339 336 336 334 332 333 335 335 336 333 332 329 329 328 328 331 333 334 332 331 331 330 325 337 38 17 32 359 276 310 312 317 314 316 315 325 60 310 283 286 278 278 275 47 183 108 215 136 145 187 79 300 152 179 184 233 160 4 162 163 143 130 123 118 109 88 88 74 59 108 109 82 107 123 96 111 123 121 121 121 131 128
352 350 347 346 349 341 336 334 336 332 334 332 331 335 332 332 329 330 328 326 327 330 332 336 339 341 335 330 328 357 70 75 184 270 274 288 325 325 323 320 322 329 36 219 214 276 267 286 308 168 172 124 165 107 155 186 107 231 52 187 199 212 111 326 135 118 127 126 124 117 108 81 23 46 114 130 95 68 101 109 147 143 135 131 134 136 137 130
352 351 346 350 343 340 334 332 331 329 329 329 332 330 332 328 329 328 328 326 327 327 334 335 340 341 339 327 342 63 73 43 280 253 255 291 334 334 328 327 328 356 345 266 315 262 188 240 356 39 130 147 115 119 205 117 102 100 138 279 282 211 76 22 113 119 119 119 111 113 102 119 148 40 31 320 122 137 127 118 111 125 132 133 139 138 133 121
349 349 347 351 343 335 331 331 329 326 324 325 328 325 328 326 327 328 329 327 326 328 331 337 336 339 338 333 42 60 77 241 268 267 274 310 331 338 334 329 346 29 32 23 121 317 12 354 116 128 196 136 159 159 173 149 129 174 49 296 290 261 120 126 107 122 132 125 116 104 91 93 83 86 42 62 59 45 99 116 114 118 116 112 104 112 115 116
348 346 346 345 341 334 331 329 326 325 323 321 323 324 324 325 326 329 328 329 328 330 336 340 340 338 330 32 45 86 128 253 232 259 316 328 330 329 338 346 6 27 39 24 7 27 99 126 132 205 123 88 161 121 148 142 121 108 175 134 356 322 109 114 102 87 85 108 94 98 102 90 114 82 46 68 43 41 79 92 113 107 107 108 103 103 89 87
346 347 344 346 346 335 329 327 323 323 322 322 321 322 322 324 327 327 328 330 333 333 343 349 351 357 356 58 77 354 43 255 257 270 316 318 336 331 335 360 24 18 40 51 318 19 81 165 173 193 116 169 193 134 152 121 142 125 103 269 103 14 60 85 92 89 91 86 100 83 74 58 71 108 99 51 35 21 69 90 75 101 102 81 92 97 99 100
346 344 344 341 338 334 329 324 322 322 321 321 322 321 322 325 327 326 325 333 346 343 344 352 353 325 58 85 108 66 294 240 213 274 308 325 325 329 12 343 2 46 329 42 332 244 136 291 231 92 224 166 182 129 152 133 158 150 134 93 106 83 83 82 90 88 92 103 98 82 87 90 95 88 60 42 27 25 81 88 99 109 101 103 100 94 105 115
344 342 343 343 341 332 329 324 323 321 321 319 322 320 323 326 327 325 323 334 342 343 341 346 349 360 41 77 39 71 260 225 294 269 304 335 334 342 8 320 20 39 21 335 11 45 80 243 164 299 151 312 200 142 143 98 147 120 103 88 83 73 85 43 91 87 82 71 108 104 96 49 348 32 119 54 78 84 77 90 87 91 104 104 113 106 102 134
343 342 341 339 336 331 327 325 329 323 321 320 319 322 322 327 324 322 325 332 340 343 352 346 345 24 24 86 93 174 246 51 244 327 306 0 351 352 307 303 250 45 50 349 30 119 147 192 219 258 80 219 111 79 102 120 117 117 115 94 81 83 72 84 91 104 79 57 91 106 98 72 2 37 117 156 135 111 110 105 110 102 100 104 111 130 133 134
342 340 338 338 334 332 329 325 326 325 322 321 321 321 324 323 322 318 324 329 341 348 352 347 21 97 65 67 121 182 215 223 347 312 285 355 316 274 280 237 166 191 128 325 292 264 223 316 86 34 188 329 122 101 105 128 133 139 115 93 78 84 69 19 44 359 93 107 124 104 87 27 2 114 95 130 123 95 106 106 103 119 111 104 105 115 145 156
341 339 339 336 337 334 329 325 324 323 321 320 321 321 320 319 317 316 322 329 340 349 347 340 59 85 83 33 237 239 305 293 327 330 326 35 301 287 297 225 219 185 185 161 258 258 269 178 68 338 253 136 136 162 157 133 147 161 106 118 98 79 46 4 23 36 80 169 119 358 123 216 310 136 174 131 131 118 110 127 123 110 117 129 144 165 164 166
341 339 339 339 339 331 327 325 325 324 321 321 319 319 315 313 309 310 313 320 331 347 349 341 98 56 89 246 276 262 288 232 333 21 307 318 33 308 347 11 344 223 148 199 244 238 293 208 155 228 252 152 142 126 114 57 329 131 92 100 131 111 56 4 57 35 99 286 26 355 128 190 198 220 219 321 154 149 156 155 165 149 143 149 150 175 189 204
343 344 342 339 335 330 327 329 328 325 323 320 319 313 308 304 299 293 300 307 325 340 339 25 68 75 40 276 260 291 280 59 5 285 282 9 21 342 344 337 334 309 236 208 255 178 153 81 71 20 215 237 125 121 118 108 110 153 110 32 7 121 151 4 40 352 133 210 355 65 82 163 188 200 211 181 163 183 168 180 175 169 166 165 182 180 208 207
348 343 338 335 335 330 326 331 329 325 323 320 314 307 300 292 286 282 281 276 287 355 32 40 5 103 93 11 238 352 34 4 311 279 277 49 34 257 270 281 283 343 27 271 267 298 356 152 168 199 124 127 131 136 127 116 64 355 53 141 110 104 136 116 233 305 282 99 106 214 168 112 221 182 183 193 196 204 177 180 183 184 192 189 180 183 201 202
346 341 338 336 334 331 330 329 330 328 321 315 312 302 294 287 286 283 280 295 233 122 85 264 324 77 81 246 285 15 294 269 260 340 325 303 184 215 351 10 11 339 347 301 350 79 323 115 292 92 12 123 147 141 126 143 130 213 18 119 114 137 144 127 132 220 212 110 66 3 118 182 98 148 168 175 217 181 183 185 182 185 179 194 200 182 202 209
343 341 338 335 333 333 329 330 330 330 319 312 309 297 299 310 351 341 10 45 10 89 72 69 113 47 315 358 354 293 288 294 324 294 275 263 148 15 50 2 318 347 10 48 11 78 294 298 31 143 84 125 129 165 156 175 166 171 141 118 98 105 137 136 154 188 104 43 97 72 74 109 142 132 165 185 207 187 189 182 184 177 186 197 213 205 201 209
343 343 338 335 334 333 330 331 333 328 324 313 302 308 315 42 42 83 52 351 40 351 28 316 17 81 215 281 292 292 285 247 297 358 309 353 9 77 97 134 51 7 279 67 283 109 356 73 43 85 144 161 172 163 173 128 141 141 146 127 129 129 130 145 92 112 131 111 93 68 149 154 160 181 174 185 202 196 193 167 183 191 203 196 197 214 219 220
344 343 337 334 333 332 329 332 332 328 329 344 11 9 12 18 5 325 343 32 87 157 173 243 208 233 295 312 307 278 272 49 38 287 307 279 297 355 42 62 352 55 80 142 148 208 117 112 150 164 168 154 108 138 155 107 110 96 93 113 128 117 86 86 107 140 132 92 48 93 103 136 175 197 192 184 192 218 199 188 192 192 200 208 212 218 217 221
343 342 339 332 332 333 328 330 330 326 325 103 69 62 91 207 54 323 307 278 244 141 348 286 195 235 247 284 305 7 6 320 68 283 261 106 82 77 310 21 16 55 353 184 131 271 74 86 63 67 7 127 180 28 109 99 116 122 118 114 114 118 118 131 121 140 324 107 100 110 113 146 188 179 194 177 203 213 206 201 212 204 210 210 213 222 221 225
343 342 337 333 331 335 327 324 328 322 343 96 69 100 153 193 182 208 109 341 323 333 319 297 283 326 312 251 246 127 103 4 342 311 302 121 322 95 328 88 86 131 327 356 55 41 61 113 178 319 261 220 47 66 112 117 115 123 127 125 111 110 102 74 84 101 77 87 151 154 114 171 192 183 177 196 208 224 214 208 209 205 215 219 218 223 225 190
340 341 337 332 334 330 331 323 321 340 4 32 52 83 159 240 16 330 96 140 237 311 23 351 350 319 316 295 7 122 31 30 300 314 329 46 356 87 148 52 47 58 21 30 123 116 98 318 266 295 355 102 48 86 97 96 102 120 131 137 150 155 142 150 222 127 25 110 167 172 105 126 203 199 207 203 198 227 220 208 221 210 215 215 216 212 206 209
341 342 338 333 331 332 324 330 324 334 37 125 101 147 241 91 73 69 64 175 230 313 110 184 251 280 282 331 282 49 68 306 69 325 331 58 68 252 66 126 73 48 12 86 93 101 135 155 335 336 104 116 104 114 115 114 100 86 131 112 134 165 169 140 161 120 105 37 101 120 73 320 203 219 227 224 206 215 220 222 230 227 229 236 251 252 215 206
341 342 338 333 331 328 328 334 38 302 170 63 35 250 256 195 141 164 67 351 21 319 85 312 52 271 263 344 357 325 275 319 238 253 293 39 355 42 34 147 94 11 118 128 91 73 5 337 343 75 99 109 109 99 123 123 112 96 320 160 152 138 114 111 129 129 38 32 266 144 109 273 203 217 232 205 209 233 219 209 225 221 221 227 234 231 219 228
342 341 338 335 332 331 319 40 313 297 88 164 202 252 292 279 122 134 97 73 360 269 345 320 52 345 159 310 37 219 56 39 321 285 300 230 191 119 20 26 105 148 186 82 109 124 170 321 88 124 108 108 110 112 267 114 133 123 216 124 144 134 127 135 148 118 132 162 201 110 139 255 258 226 223 211 217 231 229 226 229 220 220 220 226 224 216 215
341 341 339 336 332 338 52 220 233 2 106 296 246 307 307 338 157 123 48 358 32 324 350 236 71 294 78 290 294 64 52 317 324 161 277 341 341 69 94 339 23 40 183 144 51 353 7 354 50 62 100 102 114 113 304 150 125 171 209 133 144 128 135 151 134 92 141 109 80 67 110 162 304 281 210 188 210 232 242 239 229 222 216 218 221 222 216 218
341 340 339 335 331 18 166 129 31 137 186 232 336 331 1 357 117 47 80 63 343 316 23 313 311 300 27 322 25 95 192 61 21 328 64 283 92 9 81 29 93 349 295 97 114 255 65 350 28 66 88 75 135 186 316 357 125 210 160 145 149 146 139 115 97 102 120 121 83 320 336 53 267 259 90 145 209 240 242 234 229 220 216 216 217 221 219 213
340 341 338 337 345 113 114 102 124 200 291 305 348 1 21 70 82 100 119 90 257 53 225 38 251 10 335 350 41 347 326 136 122 280 312 349 21 135 61 69 122 70 31 95 131 277 320 168 289 134 84 111 284 306 259 184 91 355 105 82 83 75 62 86 103 106 55 70 216 241 31 162 285 278 136 152 248 256 239 228 226 214 211 209 209 215 215 207
340 341 340 338 11 29 353 38 41 225 335 354 357 350 59 54 34 34 22 56 305 358 359 264 45 296 347 26 336 7 41 340 221 315 29 74 341 24 43 164 94 70 56 49 80 192 211 62 140 88 69 219 186 265 203 217 166 130 102 105 93 60 58 43 64 91 76 24 258 260 300 166 300 244 191 159 222 213 223 221 220 209 208 209 207 204 201 201
339 339 340 6 99 202 102 25 308 335 332 8 349 48 69 40 103 107 78 227 11 275 353 9 338 3 27 27 8 335 38 355 352 29 8 7 7 36 8 71 16 62 49 41 54 337 29 50 38 307 88 333 162 80 360 84 105 109 112 129 113 53 41 32 359 36 108 253 268 279 272 280 180 296 248 229 255 185 199 210 195 195 199 199 196 196 196 197
339 336 344 40 237 92 141 197 278 311 1 327 52 61 70 325 11 73 186 328 81 292 61 297 318 27 343 299 62 355 341 344 6 31 39 17 51 39 350 121 15 82 25 354 48 344 24 16 275 345 265 45 342 90 16 38 33 83 121 120 120 134 71 115 13 159 198 181 255 317 269 49 255 219 284 304 271 313 304 246 220 196 198 193 192 192 193 194
336 337 341 32 13 51 35 203 105 348 6 50 70 50 56 95 51 280 304 332 241 212 299 149 265 344 311 31 355 330 295 66 316 41 78 11 89 43 126 69 256 191 130 263 56 21 338 279 22 338 29 11 70 102 118 62 25 110 139 127 91 116 53 126 276 336 331 289 265 228 300 260 258 299 250 296 319 295 301 293 259 209 197 191 186 184 182 187
336 344 20 322 33 253 214 146 95 51 55 43 78 32 54 67 238 171 94 221 206 347 340 357 325 350 35 78 328 356 40 360 59 356 49 40 43 25 335 8 26 23 68 77 72 341 110 56 344 6 18 345 40 80 151 165 148 155 79 115 164 142 151 168 186 171 198 189 270 271 104 230 156 226 284 245 287 318 329 351 24 57 79 100 107 128 140 157
328 36 140 337 21 300 251 169 81 100 80 67 51 83 91 198 218 179 260 287 293 305 229 335 340 41 352 12 314 358 108 7 28 47 27 42 11 43 357 326 339 81 107 79 319 69 109 175 268 278 242 3 18 334 95 86 72 306 149 86 70 309 151 127 200 143 156 125 41 246 210 188 174 228 250 278 346 16 11 22 51 65 70 97 93 105 123 132
21 323 104 313 33 275 349 184 96 75 88 60 76 46 104 177 160 162 108 184 348 86 290 2 62 51 311 328 318 33 329 92 342 76 354 59 236 52 301 229 338 346 50 116 200 81 34 32 286 319 355 344 338 358 16 95 129 231 59 170 237 142 94 105 50 66 100 53 230 211 318 302 301 13 33 344 53 14 17 30 59 64 65 80 92 91 93 111
22 345 23 328 328 271 252 137 99 79 62 89 90 88 197 311 192 179 352 131 243 151 57 95 319 87 340 333 301 340 315 44 2 85 352 343 1 25 351 307 242 6 53 133 30 170 134 180 298 44 1 337 174 140 307 10 148 72 65 220 130 130 121 122 142 340 59 148 238 40 233 310 18 251 341 357 325 279 326 47 74 67 80 96 90 86 108 115
4 14 194 327 237 253 244 175 78 51 77 80 63 118 248 93 300 193 211 354 287 22 93 97 264 71 252 87 354 357 318 86 314 47 107 1 127 328 353 312 306 89 342 331 116 279 109 82 314 338 232 279 347 55 9 327 17 142 178 184 105 199 211 335 90 74 97 244 275 333 298 254 193 252 353 251 206 236 239 232 122 137 124 132 125 112 95 104
58 73 36 266 276 260 259 60 66 69 64 59 172 110 256 212 252 169 219 169 215 153 77 229 138 335 129 103 239 300 333 79 324 83 84 338 78 48 66 129 301 88 355 21 62 176 33 111 319 292 341 311 17 51 80 307 327 18 38 21 6 99 143 84 160 175 115 210 63 279 44 231 213 220 190 247 223 222 224 212 211 190 175 163 161 160 153 150
22 44 334 268 282 23 52 68 65 46 62 113 198 141 199 101 239 272 298 156 302 78 197 115 248 87 27 194 134 72 348 78 94 316 101 289 95 350 55 0 260 312 345 333 114 346 83 50 140 272 332 36 27 4 100 332 331 337 26 348 360 20 207 106 42 65 320 164 168 156 335 281 267 210 169 227 235 221 204 206 203 192 187 184 177 171 174 169
349 105 255 286 309 316 48 48 49 39 97 207 97 150 54 205 203 292 319 140 158 335 158 165 153 116 198 77 6 320 35 43 23 59 123 328 117 283 200 243 140 316 330 5 51 5 64 16 125 336 26 10 203 93 222 156 203 202 126 107 162 99 67 125 272 42 76 65 218 99 244 270 271 170 197 213 239 229 227 197 196 198 189 185 190 187 170 168
81 65 263 309 331 68 74 53 20 102 99 104 89 161 93 128 67 316 349 325 137 248 339 99 5 118 103 78 195 9 103 39 358 71 317 133 342 118 245 103 256 215 36 92 109 266 142 129 90 64 124 186 273 269 268 169 158 189 128 330 146 108 97 91 119 257 35 43 109 150 109 268 240 215 201 218 247 257 235 192 202 195 191 194 197 186 185 173
60 171 251 37 322 87 68 68 342 47 60 227 296 349 341 21 122 220 109 317 310 115 14 64 206 94 252 168 189 79 118 72 62 348 254 281 256 220 238 7 299 75 134 338 9 295 84 75 57 324 309 313 323 320 236 62 177 30 272 225 94 319 194 168 165 183 129 326 5 11 43 257 290 273 241 248 262 264 257 191 202 199 198 197 187 186 180 171
173 157 29 335 86 97 81 184 124 70 267 308 74 194 315 190 128 42 264 298 123 333 152 173 317 248 146 123 116 100 194 83 330 77 25 158 43 265 253 324 309 346 114 306 129 307 67 300 111 70 12 342 344 352 360 306 96 191 174 235 210 236 68 158 105 75 92 244 165 108 225 287 276 334 317 323 339 326 303 281 183 193 209 192 189 187 182 171
317 302 327 301 8 66 262 179 131 145 187 138 123 101 31 14 225 190 160 200 349 198 81 317 225 172 44 76 83 73 11 134 145 323 125 130 238 347 306 350 304 177 256 234 282 317 90 178 94 124 145 153 205 250 243 237 233 269 117 305 22 79 145 3 228 351 75 273 107 157 253 254 275 311 300 293 320 299 276 261 267 205 189 182 184 186 181 176
117 127 308 344 6 34 68 71 113 134 135 146 84 211 113 71 4 311 141 5 183 176 262 151 352 85 90 58 47 26 23 16 116 191 78 340 313 318 244 307 51 192 249 258 337 75 117 86 85 151 150 185 203 211 256 292 15 162 281 38 243 26 61 92 99 82 226 194 202 238 188 287 288 262 267 266 238 223 237 231 202 203 209 206 189 183 183 186
208 149 171 225 347 48 62 8 106 100 169 173 112 174 134 162 227 344 191 60 236 146 14 37 179 96 249 85 155 95 307 44 360 76 359 172 255 243 289 192 301 255 286 8 120 86 73 58 352 119 112 188 204 199 290 316 171 234 160 241 181 183 183 113 148 222 175 90 300 254 208 183 248 242 251 264 257 250 245 236 234 234 210 190 193 192 194 196
127 255 112 192 130 223 100 319 137 86 86 96 111 71 151 130 151 156 349 55 123 349 118 343 64 303 190 179 137 92 41 55 33 115 308 245 346 333 35 287 71 286 337 9 359 122 130 113 254 80 9 318 291 310 334 27 194 256 224 218 207 214 154 181 229 209 144 179 216 267 146 209 255 227 230 228 213 209 211 211 210 202 171 168 169 189 197 202
114 229 153 337 256 251 130 137 123 128 111 123 112 104 161 150 188 217 163 137 36 313 204 150 248 232 236 336 98 145 184 96 299 303 173 176 178 24 30 355 252 24 76 30 9 127 91 42 218 100 167 330 335 353 359 52 326 321 249 240 257 175 214 214 238 218 199 231 196 210 211 249 249 264 241 240 228 215 250 331 115 173 192 192 193 201 202 202
244 138 265 4 89 114 107 82 115 107 100 196 112 241 158 171 168 210 305 130 152 272 164 163 221 157 123 94 82 147 209 172 171 160 222 130 28 172 207 187 189 5 52 85 28 315 95 263 67 311 75 289 313 350 41 46 71 296 279 272 254 265 297 260 289 287 68 293 264 254 279 286 261 209 246 253 125 80 327 274 217 216 195 191 198 207 209 208
220 176 143 118 74 327 66 91 123 129 103 295 105 202 118 191 189 172 149 202 172 181 175 207 175 119 97 104 68 12 329 192 159 295 172 142 155 216 131 256 130 127 11 38 15 320 63 169 60 71 63 317 345 12 312 20 359 215 275 273 245 198 237 215 202 209 170 224 236 158 285 260 273 182 235 265 179 190 217 233 234 228 208 199 204 213 213 214
76 318 77 104 97 287 149 350 74 85 266 223 150 191 172 216 193 146 87 193 176 221 203 156 164 110 47 96 199 204 197 161 168 358 159 141 90 75 33 109 105 158 177 120 268 66 117 128 126 128 70 266 262 56 335 335 352 325 277 233 209 206 197 297 273 233 219 162 164 187 231 229 239 202 165 247 190 230 241 245 244 242 219 202 207 212 214 215